Location: ShareBrained
(45.5589°N, 122.6491°W)
Time: 01:21:34
(UTC-08:00)

NOAA 19 - Pass Details

Date: 22 September 2023
Orbit: 839 x 860 km, 99.1° (Epoch: 08 December)

Event Time Altitude Azimuth Distance (km) Brightness Sun altitude
Exits shadow 21:55:58 35° 216° (SW) 1,347 6.2 -28.6°
Maximum altitude 21:57:41 45° 261° (W) 1,138 6.1 -28.9°
Drops below altitude 10° 22:02:59 10° 334° (NNW) 2,488 8.4 -29.6°
Sets 22:05:29 0° 340° (NNW) 3,432 9.1 -30.0°
